Medicine Hat, Alberta

4:24 AM MST on December 07, 2016 (GMT -0700)
Medicine Hat

Weather History for CYXH - August, 2013

Change the Weather History Date:

Wednesday, August 7, 2013

  Actual Average Record
Temperature  
Mean Temperature 51 °F -  
Max Temperature 75 °F 79 °F 95 °F (2006)
Min Temperature 27 °F 54 °F 27 °F (2013)
Degree Days  
Heating Degree Days 14    
Growing Degree Days 1 (Base 50)    
Moisture  
Dew Point 49 °F    
Average Humidity 72    
Maximum Humidity 99    
Minimum Humidity 38    
Precipitation  
Precipitation 0.00 in - - ()
Sea Level Pressure  
Sea Level Pressure 30.04 in    
Wind  
Wind Speed 5 mph ()    
Max Wind Speed 22 mph    
Max Gust Speed -    
Visibility 9.7 miles    
Events Rain    
Averages and records for this station are not official NWS values.
T = Trace of Precipitation, MM = Missing Value Source: Averaged Metar Reports

Daily Weather History Graph

Daily Weather History Graph

Search for Another Location

Airport or City:

Trip Planner

Search our weather history database for the weather conditions in past years. The results will help you decide how hot, cold, wet, or windy it might be!

Date:

Astronomy

Aug. 07, 2013 Rise Set
Actual Time 6:01 AM MDT 8:54 PM MDT
Civil Twilight 5:23 AM MDT 9:32 PM MDT
Nautical Twilight 4:35 AM MDT 10:20 PM MDT
Astronomical Twilight 3:35 AM MDT 11:18 PM MDT
Moon 7:05 AM MDT 8:49 PM MDT
Length of Visible Light 16h 08m
Length of Day
14h 53m
New Moon, 1% of the Moon is Illuminated
Aug 7
New Moon
Aug 14
First Quarter
Aug 20
Full
Aug 28
Last Quarter
Sep 5
New

Hourly Weather History & Observations

Time (MDT) Temp. Dew Point Humidity Pressure Visibility Wind Dir Wind Speed Gust Speed Precip Events Conditions
12:00 AM 33 °F 33 °F 98% 30.14 in - NNW 12.7 mph - -  
12:00 AM 59.0 °F 51.8 °F 77% 30.04 in 9.0 mi ENE 4.6 mph - N/A   Partly Cloudy
1:00 AM 57.2 °F 51.8 °F 82% 30.04 in 9.0 mi East 3.5 mph - N/A   Mostly Cloudy
2:00 AM 55.4 °F 50.0 °F 82% 30.05 in 9.0 mi NE 3.5 mph - N/A   Mostly Cloudy
3:00 AM 57.2 °F 51.8 °F 82% 30.03 in 9.0 mi ESE 4.6 mph - N/A   Overcast
4:00 AM 57.2 °F 51.8 °F 82% 30.05 in 9.0 mi Variable 2.3 mph - N/A   Overcast
5:00 AM 57.2 °F 51.8 °F 82% 30.04 in 9.0 mi Variable 2.3 mph - N/A   Overcast
6:00 AM 30 °F 30 °F 99% 30.12 in - NNW 21.9 mph - -  
6:00 AM 57.2 °F 53.6 °F 88% 30.03 in 9.0 mi Calm Calm - N/A   Overcast
6:22 AM 57.2 °F 51.8 °F 82% 30.04 in 9.0 mi Calm Calm - N/A Rain Light Rain
6:37 AM 57.2 °F 53.6 °F 88% 30.04 in 9.0 mi Variable 2.3 mph - N/A   Overcast
6:44 AM 57.2 °F 53.6 °F 88% 30.04 in 9.0 mi Calm Calm - N/A Rain Light Rain
7:00 AM 57.2 °F 55.4 °F 94% 30.04 in 15.0 mi SSE 3.5 mph - N/A Rain Light Rain Showers
8:00 AM 57.2 °F 55.4 °F 94% 30.04 in 15.0 mi South 5.8 mph - N/A   Mostly Cloudy
9:00 AM 59.0 °F 55.4 °F 88% 30.03 in 30.0 mi East 2.3 mph - N/A   Mostly Cloudy
10:00 AM 62.6 °F 55.4 °F 77% 30.03 in 30.0 mi Calm Calm - N/A   Mostly Cloudy
11:00 AM 64.4 °F 55.4 °F 73% 30.04 in 30.0 mi WSW 3.5 mph - N/A   Mostly Cloudy
12:00 PM 29 °F 27 °F 88% 30.14 in - NNW 19.6 mph - -  
12:00 PM 66.2 °F 55.4 °F 68% 30.04 in 30.0 mi WSW 5.8 mph - N/A   Mostly Cloudy
1:00 PM 66.2 °F 55.4 °F 68% 30.04 in 30.0 mi SSW 5.8 mph - N/A   Mostly Cloudy
2:00 PM 69.8 °F 53.6 °F 56% 30.03 in 30.0 mi SSE 6.9 mph - N/A   Mostly Cloudy
3:00 PM 69.8 °F 50.0 °F 49% 30.03 in 30.0 mi WSW 3.5 mph - N/A   Mostly Cloudy
4:00 PM 73.4 °F 46.4 °F 38% 30.01 in 30.0 mi NNE 3.5 mph - N/A   Scattered Clouds
5:00 PM 73.4 °F 46.4 °F 38% 29.99 in 30.0 mi ENE 3.5 mph - N/A   Scattered Clouds
6:00 PM 27 °F 25 °F 90% 30.19 in - NNW 15.0 mph - -  
6:00 PM 75.2 °F 48.2 °F 38% 29.99 in 30.0 mi NE 6.9 mph - N/A   Mostly Cloudy
7:00 PM 73.4 °F 48.2 °F 41% 30.00 in 30.0 mi East 6.9 mph - N/A   Scattered Clouds
8:00 PM 71.6 °F 48.2 °F 43% 30.00 in 30.0 mi East 6.9 mph - N/A   Scattered Clouds
9:00 PM 68.0 °F 46.4 °F 46% 30.01 in 30.0 mi East 6.9 mph - N/A   Overcast
10:00 PM 68.0 °F 48.2 °F 49% 30.02 in 9.0 mi East 6.9 mph - N/A   Mostly Cloudy
10:52 PM 64.4 °F 51.8 °F 64% 30.04 in 9.0 mi South 8.1 mph - N/A Rain Light Rain
11:00 PM 62.6 °F 53.6 °F 72% 30.04 in 9.0 mi South 5.8 mph - N/A Rain Light Rain
11:09 PM 62.6 °F 53.6 °F 72% 30.04 in 9.0 mi South 5.8 mph - N/A   Overcast
11:26 PM 62.6 °F 53.6 °F 72% 30.04 in 9.0 mi South 3.5 mph - N/A Rain Light Rain
11:39 PM 60.8 °F 53.6 °F 77% 30.05 in 9.0 mi WSW 5.8 mph - N/A   Overcast